Weather History for Kearney, NE

Change the Weather History Date:

Sunday, March 4, 2012

  Actual Average Record
Temperature  
Mean Temperature 42 °F 33 °F  
Max Temperature 59 °F 45 °F 79 °F (1921)
Min Temperature 25 °F 22 °F -20 °F (1960)
Degree Days  
Heating Degree Days 23 32  
Cooling Degree Days 0 0  
Moisture  
Dew Point 27 °F    
Average Humidity 52    
Maximum Humidity 75    
Minimum Humidity 29    
Precipitation  
Precipitation 0.00 in - 0.80 in (1915)
Sea Level Pressure  
Sea Level Pressure 29.94 in    
Wind  
Wind Speed 17 mph (WNW)    
Max Wind Speed 35 mph    
Max Gust Speed 48 mph    
Visibility 10 miles    
Events      
T = Trace of Precipitation, MM = Missing Value Source: NWS Daily Summary

Daily Weather History Graph

Daily Weather History Graph

Search for Another Location

Airport:

Trip Planner

Search our weather history database for the weather conditions in past years. The results will help you decide how hot, cold, wet, or windy it might be!

Date:

Astronomy

Mar. 04, 2012 Rise Set
Actual Time 7:04 AM CST 6:31 PM CST
Civil Twilight 6:37 AM CST 6:58 PM CST
Nautical Twilight 6:05 AM CST 7:30 PM CST
Astronomical Twilight 5:33 AM CST 8:02 PM CST
Moon 2:44 PM CST (3/4) 4:26 AM CST (3/4)
Length of Visible Light 12h 21m
Length of Day
11h 26m
Waxing Gibbous, 84% of the Moon is Illuminated
Mar 4
Waxing Gibbous
Mar 8
Full
Mar 14
Last Quarter
Mar 22
New
Mar 30
First Quarter

Hourly Weather History & Observations

Time (CST) Temp. Windchill Dew Point Humidity Pressure Visibility Wind Dir Wind Speed Gust Speed Precip Events Conditions
12:15 AM 37.4 °F 29.8 °F 23.0 °F 56% 29.89 in 10.0 mi SW 11.5 mph - N/A   Overcast
12:35 AM 37.4 °F 28.5 °F 23.0 °F 56% 29.88 in 10.0 mi SW 15.0 mph - N/A   Overcast
12:55 AM 37.4 °F 28.5 °F 23.0 °F 56% 29.88 in 10.0 mi SW 15.0 mph - N/A   Overcast
1:15 AM 39.2 °F 31.2 °F 21.2 °F 49% 29.88 in 10.0 mi WSW 13.8 mph - N/A   Overcast
1:35 AM 39.2 °F 32.0 °F 21.2 °F 49% 29.89 in 10.0 mi WSW 11.5 mph - N/A   Overcast
1:55 AM 41.0 °F 35.8 °F 23.0 °F 49% 29.88 in 10.0 mi WSW 8.1 mph - N/A   Overcast
2:15 AM 39.2 °F 34.2 °F 21.2 °F 49% 29.87 in 10.0 mi West 6.9 mph - N/A   Overcast
2:35 AM 41.0 °F 35.8 °F 21.2 °F 45% 29.87 in 10.0 mi WSW 8.1 mph - N/A   Overcast
2:55 AM 39.2 °F 35.9 °F 21.2 °F 49% 29.86 in 10.0 mi WSW 4.6 mph - N/A   Overcast
3:15 AM 39.2 °F - 21.2 °F 49% 29.86 in 10.0 mi Calm Calm - N/A   Overcast
3:35 AM 37.4 °F 34.9 °F 21.2 °F 52% 29.86 in 10.0 mi SW 3.5 mph - N/A   Overcast
3:55 AM 35.6 °F 28.6 °F 21.2 °F 56% 29.84 in 10.0 mi SSW 9.2 mph - N/A   Overcast
4:15 AM 35.6 °F 28.6 °F 21.2 °F 56% 29.84 in 10.0 mi SW 9.2 mph - N/A   Mostly Cloudy
4:35 AM 35.6 °F 29.9 °F 21.2 °F 56% 29.84 in 10.0 mi SW 6.9 mph - N/A   Mostly Cloudy
4:55 AM 35.6 °F 29.9 °F 21.2 °F 56% 29.85 in 10.0 mi WSW 6.9 mph - N/A   Overcast
5:15 AM 37.4 °F 32.8 °F 21.2 °F 52% 29.86 in 10.0 mi West 5.8 mph - N/A   Overcast
5:35 AM 35.6 °F 30.7 °F 21.2 °F 56% 29.86 in 10.0 mi WNW 5.8 mph - N/A   Overcast
5:55 AM 35.6 °F 30.7 °F 21.2 °F 56% 29.86 in 10.0 mi WNW 5.8 mph - N/A   Overcast
6:15 AM 35.6 °F 29.2 °F 23.0 °F 60% 29.87 in 10.0 mi West 8.1 mph - N/A   Overcast
6:35 AM 37.4 °F 29.3 °F 26.6 °F 65% 29.87 in 10.0 mi West 12.7 mph - N/A   Mostly Cloudy
6:55 AM 39.2 °F 31.2 °F 28.4 °F 65% 29.88 in 10.0 mi West 13.8 mph - N/A   Scattered Clouds
7:15 AM 41.0 °F 33.9 °F 30.2 °F 65% 29.89 in 10.0 mi West 12.7 mph - N/A   Mostly Cloudy
7:35 AM 42.8 °F 34.8 °F 32.0 °F 66% 29.90 in 10.0 mi West 17.3 mph - N/A   Scattered Clouds
7:55 AM 44.6 °F 36.9 °F 33.8 °F 66% 29.91 in 10.0 mi West 18.4 mph - N/A   Clear
8:15 AM 44.6 °F 38.4 °F 33.8 °F 66% 29.91 in 10.0 mi West 12.7 mph - N/A   Partly Cloudy
8:35 AM 46.4 °F 40.1 °F 35.6 °F 66% 29.92 in 10.0 mi West 15.0 mph - N/A   Clear
8:55 AM 48.2 °F - 35.6 °F 62% 29.92 in 10.0 mi West 19.6 mph 26.5 mph N/A   Clear
9:15 AM 50.0 °F - 35.6 °F 58% 29.93 in 10.0 mi West 21.9 mph 27.6 mph N/A   Clear
9:35 AM 51.8 °F - 33.8 °F 50% 29.93 in 10.0 mi WNW 23.0 mph 32.2 mph N/A   Clear
9:55 AM 53.6 °F - 33.8 °F 47% 29.94 in 10.0 mi West 26.5 mph 33.4 mph N/A   Clear
10:15 AM 53.6 °F - 33.8 °F 47% 29.94 in 10.0 mi WNW 26.5 mph 34.5 mph N/A   Clear
10:35 AM 55.4 °F - 33.8 °F 44% 29.95 in 10.0 mi WNW 21.9 mph 33.4 mph N/A   Clear
10:55 AM 55.4 °F - 33.8 °F 44% 29.94 in 10.0 mi WNW 25.3 mph 35.7 mph N/A   Partly Cloudy
11:15 AM 57.2 °F - 32.0 °F 38% 29.96 in 10.0 mi WNW 26.5 mph 32.2 mph N/A   Scattered Clouds
11:35 AM 57.2 °F - 32.0 °F 38% 29.96 in 10.0 mi WNW 31.1 mph 38.0 mph N/A   Mostly Cloudy
11:55 AM 57.2 °F - 30.2 °F 36% 29.97 in 10.0 mi NW 31.1 mph 38.0 mph N/A   Mostly Cloudy
12:15 PM 57.2 °F - 32.0 °F 38% 29.98 in 10.0 mi NW 33.4 mph 41.4 mph N/A   Mostly Cloudy
12:35 PM 57.2 °F - 32.0 °F 38% 29.98 in 10.0 mi WNW 33.4 mph 41.4 mph N/A   Mostly Cloudy
12:55 PM 57.2 °F - 32.0 °F 38% 29.99 in 10.0 mi NW 33.4 mph 48.3 mph N/A   Mostly Cloudy
1:15 PM 57.2 °F - 32.0 °F 38% 30.00 in 10.0 mi NW 31.1 mph 38.0 mph N/A   Mostly Cloudy
1:35 PM 57.2 °F - 32.0 °F 38% 30.01 in 10.0 mi NW 24.2 mph 38.0 mph N/A   Partly Cloudy
1:55 PM 57.2 °F - 30.2 °F 36% 30.01 in 10.0 mi NW 34.5 mph 42.6 mph N/A   Partly Cloudy
2:15 PM 57.2 °F - 32.0 °F 38% 30.01 in 10.0 mi WNW 31.1 mph 40.3 mph N/A   Clear
2:35 PM 57.2 °F - 32.0 °F 38% 30.01 in 10.0 mi NW 28.8 mph 35.7 mph N/A   Partly Cloudy
2:55 PM 57.2 °F - 28.4 °F 33% 30.02 in 10.0 mi NW 32.2 mph 40.3 mph N/A   Partly Cloudy
3:15 PM 57.2 °F - 28.4 °F 33% 30.03 in 10.0 mi NW 26.5 mph 39.1 mph N/A   Partly Cloudy
3:35 PM 55.4 °F - 26.6 °F 33% 30.04 in 10.0 mi WNW 26.5 mph 40.3 mph N/A   Clear
3:55 PM 55.4 °F - 26.6 °F 33% 30.05 in 10.0 mi NW 23.0 mph 33.4 mph N/A   Clear
4:15 PM 55.4 °F - 24.8 °F 31% 30.05 in 10.0 mi NW 26.5 mph 34.5 mph N/A   Clear
4:35 PM 55.4 °F - 24.8 °F 31% 30.06 in 10.0 mi NW 29.9 mph 34.5 mph N/A   Clear
4:55 PM 53.6 °F - 23.0 °F 30% 30.07 in 10.0 mi NW 29.9 mph 36.8 mph N/A   Clear
5:15 PM 53.6 °F - 23.0 °F 30% 30.09 in 10.0 mi NW 24.2 mph 34.5 mph N/A   Clear
5:35 PM 51.8 °F - 21.2 °F 30% 30.10 in 10.0 mi NNW 21.9 mph 26.5 mph N/A   Clear
5:55 PM 50.0 °F - 21.2 °F 32% 30.11 in 10.0 mi NNW 18.4 mph 25.3 mph N/A   Clear
6:15 PM 48.2 °F - 21.2 °F 34% 30.12 in 10.0 mi NW 16.1 mph - N/A   Clear
6:35 PM 46.4 °F 41.5 °F 23.0 °F 40% 30.14 in 10.0 mi North 10.4 mph - N/A   Clear
6:55 PM 41.0 °F 34.3 °F 24.8 °F 53% 30.15 in 10.0 mi NNE 11.5 mph - N/A   Clear
7:15 PM 37.4 °F 29.8 °F 26.6 °F 65% 30.16 in 10.0 mi NNE 11.5 mph - N/A   Clear
7:35 PM 37.4 °F 32.1 °F 26.6 °F 65% 30.17 in 10.0 mi NNE 6.9 mph - N/A   Clear
7:55 PM 35.6 °F 30.7 °F 24.8 °F 65% 30.17 in 10.0 mi NE 5.8 mph - N/A   Clear
8:15 PM 33.8 °F 27.0 °F 24.8 °F 70% 30.18 in 10.0 mi NE 8.1 mph - N/A   Clear
8:35 PM 30.2 °F 23.4 °F 23.0 °F 75% 30.19 in 10.0 mi NNE 6.9 mph - N/A   Clear
8:55 PM 32.0 °F 27.5 °F 24.8 °F 75% 30.19 in 10.0 mi NE 4.6 mph - N/A   Clear
9:15 PM 33.8 °F 29.6 °F 26.6 °F 75% 30.20 in 10.0 mi NE 4.6 mph - N/A   Clear
9:35 PM 33.8 °F - 24.8 °F 70% 30.21 in 10.0 mi Calm Calm - N/A   Clear
9:55 PM 33.8 °F 29.6 °F 24.8 °F 70% 30.21 in 10.0 mi NNE 4.6 mph - N/A   Clear
10:15 PM 32.0 °F 26.4 °F 24.8 °F 75% 30.21 in 10.0 mi NE 5.8 mph - N/A   Clear
10:35 PM 30.2 °F 22.6 °F 21.2 °F 69% 30.21 in 10.0 mi NE 8.1 mph - N/A   Clear
10:55 PM 28.4 °F 22.2 °F 21.2 °F 74% 30.21 in 10.0 mi ENE 5.8 mph - N/A   Clear
11:15 PM 28.4 °F 22.2 °F 21.2 °F 74% 30.20 in 10.0 mi ENE 5.8 mph - N/A   Clear
11:35 PM 28.4 °F - 21.2 °F 74% 30.21 in 10.0 mi Calm Calm - N/A   Clear
11:55 PM 26.6 °F 18.2 °F 19.4 °F 74% 30.22 in 10.0 mi SSW 8.1 mph - N/A   Clear